Lid_Strength_Index
9 13 15 13 10 10 10 12 14 13 13 14 16 18 17 16 17 17 17 17 16 16 14 14 13 13 13 13 14 14 14 13 13 13 14 13 14 13 13 13 13 13 12 12
12 16 14 12 11 11 11 13 14 13 12 12 14 15 14 13 14 14 14 15 16 15 14 14 13 13 13 13 13 13 13 13 12 13 13 13 13 13 12 12 12 12 12 12
16 16 13 13 13 14 14 13 14 14 12 12 13 15 15 13 13 13 13 12 13 13 13 12 12 11 10 10 10 11 10 10 11 10 10 11 10 10 11 11 11 11 10 9
16 14 14 14 15 14 16 13 12 13 13 14 12 16 14 13 14 13 12 12 12 12 12 12 12 11 11 10 10 10 10 10 10 9 10 10 11 12 11 10 9 9 9 9
18 16 15 15 16 14 15 12 12 13 13 14 15 15 13 12 14 13 12 12 11 11 11 11 11 11 10 10 10 9 9 10 10 9 10 10 11 10 10 10 10 9 9 9
16 15 15 16 14 12 12 13 13 13 13 17 16 16 14 14 12 11 10 11 10 11 11 11 10 10 10 9 9 9 10 10 9 10 10 10 10 11 11 10 10 10 9 9
16 17 15 15 15 13 13 13 15 17 17 16 16 17 13 11 11 9 9 10 10 10 10 11 11 11 10 10 10 9 10 10 9 10 10 10 10 10 10 10 10 10 10 10
16 18 17 16 16 17 16 15 16 18 17 16 18 18 14 12 11 10 10 9 9 10 10 11 11 11 10 10 10 9 9 10 9 9 9 9 9 9 9 9 10 10 10 10
17 19 16 16 16 16 16 16 16 19 26 19 15 15 14 12 12 11 11 10 10 10 10 11 11 11 10 10 10 10 9 9 9 9 9 9 9 9 9 9 9 9 9 9
16 18 17 17 16 16 16 16 17 16 19 19 17 17 14 16 14 12 12 11 11 10 10 10 10 10 10 10 10 10 9 9 9 9 9 9 9 9 9 9 9 9 9 9
16 16 19 17 17 17 17 18 19 17 18 18 19 15 12 13 13 12 11 11 11 10 10 10 10 10 10 10 10 10 9 9 9 9 9 9 9 9 9 9 9 9 9 9
17 15 17 18 17 17 17 17 17 16 19 19 19 17 14 13 12 11 11 11 10 10 10 10 10 10 10 10 10 10 9 9 9 9 9 9 9 9 9 9 9 8 9 9
16 16 18 19 19 18 18 17 17 19 17 18 19 16 14 14 14 12 12 11 11 10 10 11 11 11 11 10 10 10 9 9 8 9 9 9 9 9 9 9 8 8 9 9
16 17 16 16 18 17 19 18 18 18 18 17 18 15 14 15 15 13 13 12 11 11 11 11 11 11 10 10 10 10 9 9 8 8 9 9 8 8 8 8 8 8 8 8
17 19 20 20 20 20 19 18 19 21 17 18 15 16 13 13 13 12 12 12 12 12 12 12 11 11 10 10 9 9 9 8 8 9 9 9 8 8 8 8 8 8 8 8
18 19 22 22 22 21 22 19 18 18 18 18 17 18 13 12 12 12 12 13 13 13 12 11 11 11 11 10 10 9 9 8 8 9 9 8 8 8 8 8 8 8 8 8
20 21 21 20 24 24 23 19 19 18 17 17 19 15 13 14 14 13 12 13 13 12 12 11 11 11 10 10 9 9 9 8 8 8 8 8 8 9 9 8 9 9 9 9
21 19 19 20 24 24 17 17 17 17 16 15 15 14 13 13 13 12 12 12 12 12 11 11 10 10 9 8 8 8 8 9 9 9 9 8 9 9 9 9 10 10 9 9
19 18 23 21 21 19 17 18 19 19 17 15 15 14 14 13 13 13 12 12 11 11 10 10 9 9 9 9 9 9 9 9 9 10 10 10 10 11 11 11 11 10 9 9
21 19 18 24 23 23 17 18 16 16 21 13 14 14 14 14 17 13 10 11 11 11 11 11 10 10 10 10 10 10 11 11 11 10 11 12 12 12 12 11 11 10 9 9
23 21 22 21 22 20 16 17 15 20 16 14 14 14 13 15 13 10 11 11 10 10 11 10 11 12 12 11 11 12 12 12 11 13 13 13 12 13 12 11 10 10 10 10
23 22 23 20 23 25 16 18 18 13 13 14 13 13 13 12 12 11 11 11 11 11 11 11 12 13 12 11 12 13 13 12 13 14 14 13 13 12 11 11 11 11 11 11
21 17 19 19 19 16 16 14 14 13 12 14 13 12 12 12 12 11 12 11 11 10 11 11 13 13 12 12 12 12 12 14 15 15 15 14 13 12 12 12 12 11 11 12
20 17 18 19 16 16 16 13 13 13 14 12 12 11 12 13 12 12 12 11 11 11 11 11 11 12 12 13 13 13 15 14 15 15 14 13 13 12 12 11 11 12 12 12
19 19 18 19 16 16 14 14 13 13 12 13 12 12 12 12 12 12 12 11 11 11 10 10 10 11 11 11 13 15 15 14 15 14 14 13 12 12 12 12 12 12 12 12
19 18 19 18 14 14 13 12 12 13 13 12 12 12 12 12 12 11 11 11 11 11 10 10 11 12 12 12 14 16 16 16 16 14 13 12 13 13 13 13 13 11 11 11